timestamp,surface_pressure_avg,surface_temp_avg,battery_voltage,lat,long
2019-04-24 00:00:00+00:00,274.863,1.29,12.97,47.84626,-54.09684
2019-04-24 00:10:00+00:00,275.5947,1.1,12.89,47.84626,-54.09684
2019-04-24 00:20:00+00:00,277.5264,1.0,12.97,47.84626,-54.09684
2019-04-24 00:30:00+00:00,287.9363,1.05,12.97,47.84626,-54.09684
2019-04-24 00:40:00+00:00,299.778,1.0,12.97,47.84626,-54.09684
2019-04-24 00:50:00+00:00,303.2164,1.0,12.97,47.84626,-54.09684
2019-04-24 01:00:00+00:00,305.9681,0.88,12.89,47.84626,-54.09684
2019-04-24 01:10:00+00:00,317.023,0.86,12.81,47.84626,-54.09684
2019-04-24 01:20:00+00:00,327.8464,0.89,12.89,47.84626,-54.09684
2019-04-24 01:30:00+00:00,332.7047,0.88,12.97,47.84626,-54.09684
2019-04-24 01:40:00+00:00,334.053,0.8,12.97,47.84626,-54.09684
2019-04-24 01:50:00+00:00,340.5579,0.8,12.97,47.84626,-54.09684
2019-04-24 02:00:00+00:00,347.778,0.8,12.89,47.84626,-54.09684
2019-04-24 02:10:00+00:00,346.3813,0.8,12.81,47.84626,-54.09684
2019-04-24 02:20:00+00:00,343.0162,0.7,12.89,47.84626,-54.09684
2019-04-24 02:30:00+00:00,349.0479,0.72,12.89,47.84626,-54.09684
2019-04-24 02:40:00+00:00,350.7513,0.8,12.97,47.84626,-54.09684
2019-04-24 02:50:00+00:00,345.7196,0.8,12.97,47.84626,-54.09684
2019-04-24 03:00:00+00:00,348.7946,0.8,12.89,47.84626,-54.09684
2019-04-24 03:10:00+00:00,352.103,0.79,12.81,47.84626,-54.09684
2019-04-24 03:20:00+00:00,346.5095,0.88,12.89,47.84626,-54.09684
2019-04-24 03:30:00+00:00,342.213,0.91,12.89,47.84626,-54.09684
2019-04-24 03:40:00+00:00,343.3379,0.9,12.89,47.84626,-54.09684
2019-04-24 03:50:00+00:00,345.3246,0.9,12.89,47.84626,-54.09684
2019-04-24 04:00:00+00:00,339.1964,1.0,12.81,47.84626,-54.09684
2019-04-24 04:10:00+00:00,335.618,0.99,12.73,47.84626,-54.09684
2019-04-24 04:20:00+00:00,336.2163,0.93,12.81,47.84626,-54.09684
2019-04-24 04:30:00+00:00,334.9997,0.99,12.89,47.84626,-54.09684
2019-04-24 04:40:00+00:00,327.3647,1.0,12.89,47.84626,-54.09684
2019-04-24 04:50:00+00:00,323.908,0.98,12.89,47.84626,-54.09684
2019-04-24 05:00:00+00:00,319.8846,0.97,12.81,47.84626,-54.09684
2019-04-24 05:10:00+00:00,309.1697,1.07,12.73,47.84626,-54.09684
2019-04-24 05:20:00+00:00,298.0397,1.1,12.81,47.84626,-54.09684
2019-04-24 05:30:00+00:00,297.2747,1.09,12.81,47.84626,-54.09684
2019-04-24 05:40:00+00:00,291.103,1.14,12.89,47.84626,-54.09684
2019-04-24 05:50:00+00:00,278.3214,1.17,12.89,47.84626,-54.09684
2019-04-24 06:00:00+00:00,267.5914,1.24,12.81,47.84626,-54.09684
2019-04-24 06:10:00+00:00,264.9448,1.3,12.73,47.84626,-54.09684
2019-04-24 06:20:00+00:00,256.0597,1.49,12.81,47.84626,-54.09684
2019-04-24 06:30:00+00:00,243.0781,1.64,12.81,47.84626,-54.09684
2019-04-24 06:40:00+00:00,232.1298,1.77,12.89,47.84626,-54.09684
2019-04-24 06:50:00+00:00,227.9915,1.88,12.89,47.84626,-54.09684
2019-04-24 07:00:00+00:00,222.1198,1.96,12.81,47.84626,-54.09684
2019-04-24 07:10:00+00:00,213.4632,1.99,12.73,47.84626,-54.09684
2019-04-24 07:20:00+00:00,210.4231,2.01,12.81,47.84626,-54.09684
2019-04-24 07:30:00+00:00,202.8214,2.1,12.81,47.84626,-54.09684
2019-04-24 07:40:00+00:00,199.0382,2.1,12.81,47.84626,-54.09684
2019-04-24 07:50:00+00:00,197.2998,2.1,12.89,47.84626,-54.09684
2019-04-24 08:00:00+00:00,193.5564,2.16,12.81,47.84626,-54.09684
2019-04-24 08:10:00+00:00,190.7015,2.1,12.73,47.84626,-54.09684
2019-04-24 08:20:00+00:00,190.1331,1.99,12.81,47.84626,-54.09684
2019-04-24 08:30:00+00:00,187.3648,2.14,12.81,47.84626,-54.09684
2019-04-24 08:40:00+00:00,185.4315,2.2,12.81,47.84626,-54.09684
2019-04-24 08:50:00+00:00,187.7765,2.31,12.81,47.84626,-54.09684
2019-04-24 09:00:00+00:00,191.7465,2.58,12.73,47.84626,-54.09684
2019-04-24 09:10:00+00:00,197.7248,2.34,12.65,47.84626,-54.09684
2019-04-24 09:20:00+00:00,199.4998,2.2,12.81,47.84626,-54.09684
2019-04-24 09:30:00+00:00,200.4748,2.3,12.81,47.84626,-54.09684
2019-04-24 09:40:00+00:00,204.9164,2.36,12.81,47.84626,-54.09684
2019-04-24 09:50:00+00:00,207.7631,2.41,12.81,47.84626,-54.09684
2019-04-24 10:00:00+00:00,208.3165,2.45,12.73,47.84626,-54.09684
2019-04-24 10:10:00+00:00,211.1681,2.48,12.65,47.84626,-54.09684
2019-04-24 10:20:00+00:00,214.6431,2.5,12.73,47.84626,-54.09684
2019-04-24 10:30:00+00:00,219.1548,2.48,12.81,47.84626,-54.09684
2019-04-24 10:40:00+00:00,219.6248,2.45,12.81,47.84626,-54.09684
2019-04-24 10:50:00+00:00,220.6131,2.4,12.81,47.84626,-54.09684
2019-04-24 11:00:00+00:00,224.7248,2.4,12.81,47.84626,-54.09684
2019-04-24 11:10:00+00:00,226.7265,2.21,12.73,47.84626,-54.09684
2019-04-24 11:20:00+00:00,229.6848,2.24,12.81,47.84626,-54.09684
2019-04-24 11:30:00+00:00,233.4847,2.29,12.81,47.84626,-54.09684
2019-04-24 11:40:00+00:00,237.0247,2.3,12.89,47.84626,-54.09684
2019-04-24 11:50:00+00:00,238.523,2.2,12.89,47.84626,-54.09684
2019-04-24 12:00:00+00:00,237.1215,2.1,12.81,47.84626,-54.09684
2019-04-24 12:10:00+00:00,243.8431,2.2,12.73,47.84626,-54.09684
2019-04-24 12:20:00+00:00,254.3098,2.14,12.81,47.84626,-54.09684
2019-04-24 12:30:00+00:00,257.0531,2.2,12.81,47.84626,-54.09684
2019-04-24 12:40:00+00:00,258.7248,2.2,12.81,47.84626,-54.09684
2019-04-24 12:50:00+00:00,270.0147,2.11,12.89,47.84626,-54.09684
2019-04-24 13:00:00+00:00,278.3064,2.1,12.81,47.84626,-54.09684
2019-04-24 13:10:00+00:00,281.3464,2.08,12.73,47.84626,-54.09684
2019-04-24 13:20:00+00:00,286.2798,2.0,12.89,47.84626,-54.09684
2019-04-24 13:30:00+00:00,293.028,1.99,12.97,47.84626,-54.09684
2019-04-24 13:40:00+00:00,296.4397,1.96,13.05,47.84626,-54.09684
2019-04-24 13:50:00+00:00,295.4747,2.0,13.21,47.84626,-54.09684
2019-04-24 14:00:00+00:00,305.2181,2.0,13.37,47.84626,-54.09684
2019-04-24 14:10:00+00:00,313.7097,2.0,13.37,47.84626,-54.09684
2019-04-24 14:20:00+00:00,310.5963,1.91,13.44,47.84626,-54.09684
2019-04-24 14:30:00+00:00,307.0564,1.9,13.53,47.84626,-54.09684
2019-04-24 14:40:00+00:00,311.6597,1.9,13.68,47.84626,-54.09684
2019-04-24 14:50:00+00:00,317.3146,1.7,13.68,47.84626,-54.09684
2019-04-24 15:00:00+00:00,315.3663,1.64,13.68,47.84626,-54.09684
2019-04-24 15:10:00+00:00,314.163,1.75,13.68,47.84626,-54.09684
2019-04-24 15:20:00+00:00,311.0964,1.8,13.84,47.84626,-54.09684
2019-04-24 15:30:00+00:00,310.9329,1.8,13.92,47.84626,-54.09684
2019-04-24 15:40:00+00:00,315.3497,1.8,13.92,47.84626,-54.09684
2019-04-24 15:50:00+00:00,312.2164,1.8,13.92,47.84626,-54.09684
2019-04-24 16:00:00+00:00,310.1364,1.8,13.92,47.84626,-54.09684
2019-04-24 16:10:00+00:00,314.498,1.78,13.84,47.84626,-54.09684
2019-04-24 16:20:00+00:00,314.1313,1.72,14.0,47.84626,-54.09684
2019-04-24 16:30:00+00:00,307.968,1.6,14.0,47.84626,-54.09684
2019-04-24 16:40:00+00:00,311.5564,1.5,14.0,47.84626,-54.09684
2019-04-24 16:50:00+00:00,315.6063,1.5,14.0,47.84626,-54.09684
2019-04-24 17:00:00+00:00,306.0813,1.5,14.16,47.84626,-54.09684
2019-04-24 17:10:00+00:00,303.0047,1.48,14.08,47.84626,-54.09684
2019-04-24 17:20:00+00:00,304.753,1.44,14.24,47.84626,-54.09684
2019-04-24 17:30:00+00:00,300.4631,1.44,14.24,47.84626,-54.09684
2019-04-24 17:40:00+00:00,285.893,1.48,14.32,47.84626,-54.09684
2019-04-24 17:50:00+00:00,274.3098,1.45,14.4,47.84626,-54.09684
2019-04-24 18:00:00+00:00,271.2214,1.5,14.32,47.84626,-54.09684
2019-04-24 18:10:00+00:00,262.9314,1.61,14.24,47.84626,-54.09684
2019-04-24 18:20:00+00:00,250.4181,1.7,14.4,47.84626,-54.09684
2019-04-24 18:30:00+00:00,242.1598,1.74,14.48,47.84626,-54.09684
2019-04-24 18:40:00+00:00,238.5331,1.7,14.48,47.84626,-54.09684
2019-04-24 18:50:00+00:00,231.7881,1.7,14.48,47.84626,-54.09684
2019-04-24 19:00:00+00:00,222.2948,1.71,14.32,47.84626,-54.09684
2019-04-24 19:10:00+00:00,215.3431,1.71,14.24,47.84626,-54.09684
2019-04-24 19:20:00+00:00,211.8964,1.74,14.24,47.84626,-54.09684
2019-04-24 19:30:00+00:00,206.1348,1.76,14.24,47.84626,-54.09684
2019-04-24 19:40:00+00:00,197.4382,1.7,14.32,47.84626,-54.09684
2019-04-24 19:50:00+00:00,193.1265,1.68,14.32,47.84626,-54.09684
2019-04-24 20:00:00+00:00,193.1532,1.66,14.24,47.84626,-54.09684
2019-04-24 20:10:00+00:00,192.4798,1.67,14.16,47.84626,-54.09684
2019-04-24 20:20:00+00:00,191.8065,1.69,14.24,47.84626,-54.09684
2019-04-24 20:30:00+00:00,192.0848,1.7,14.24,47.84626,-54.09684
2019-04-24 20:40:00+00:00,192.7847,1.7,14.24,47.84626,-54.09684
2019-04-24 20:50:00+00:00,194.0331,1.7,14.24,47.84626,-54.09684
2019-04-24 21:00:00+00:00,195.4531,1.6,14.08,47.84626,-54.09684
2019-04-24 21:10:00+00:00,197.7415,1.3,14.0,47.84626,-54.09684
2019-04-24 21:20:00+00:00,200.0548,1.2,14.0,47.84626,-54.09684
2019-04-24 21:30:00+00:00,203.3748,1.2,13.92,47.84626,-54.09684
2019-04-24 21:40:00+00:00,206.4915,1.17,13.84,47.84626,-54.09684
2019-04-24 21:50:00+00:00,208.1198,1.1,13.84,47.84626,-54.09684
2019-04-24 22:00:00+00:00,210.8581,1.1,13.68,47.84626,-54.09684
2019-04-24 22:10:00+00:00,217.9631,1.0,13.53,47.84626,-54.09684
2019-04-24 22:20:00+00:00,221.7631,0.9,13.53,47.84626,-54.09684
2019-04-24 22:30:00+00:00,224.6747,0.89,13.44,47.84626,-54.09684
2019-04-24 22:40:00+00:00,227.7247,0.8,13.44,47.84626,-54.09684
2019-04-24 22:50:00+00:00,229.3665,0.8,13.44,47.84626,-54.09684
2019-04-24 23:00:00+00:00,231.7964,0.8,13.29,47.84626,-54.09684
2019-04-24 23:10:00+00:00,237.7964,0.9,13.13,47.84626,-54.09684
2019-04-24 23:20:00+00:00,241.7297,1.0,13.13,47.84626,-54.09684
2019-04-24 23:30:00+00:00,242.0098,1.0,13.13,47.84626,-54.09684
2019-04-24 23:40:00+00:00,245.5781,1.1,13.13,47.84626,-54.09684
2019-04-24 23:50:00+00:00,251.4464,0.9,13.13,47.84626,-54.09684
